THURAYA-3

Last updated on Jan. 15, 2021, 6:30 a.m. UTC

1 32404U 08001A   21014.93035743 -.00000309  00000-0  00000-0 0  9997
2 32404   3.8007  13.9212 0004654 277.3547 256.7366  1.00272455 47647
UTC
Height (km)
Latitude
Longitude
Inclination
Orbital Period
UTC large
Height (km)
Speed (km/s)
/
Latitude / Longitude
Inclination (degrees)
Orbital Period (minutes)
Azimuth
Elevation
Range (km)
Doppler Factor
iOS Compass Heading
iOS Angle

Next 30 passes for location: Hong Kong

Rise time Rise Azimuth (degrees) Set time Set Azimuth (degrees) Duration Max altitude (degrees)

No matching passes for this satellites